Location: Bühlhof
(48.7849°N, 8.6361°E)
Time: 23:10:56
(UTC+00:00)

SAR-Lupe-4 - Pass Details

Date: 19 January 2026
Orbit: 480 x 483 km, 98.1° (Epoch: 10 January)

Event Time Altitude Azimuth Distance (km) Brightness Sun altitude
Rises 17:06:37 0° 157° (SSE) 2,533 7.2 -10.4°
Reaches altitude 10° 17:08:41 10° 154° (SSE) 1,659 6.2 -10.7°
Maximum altitude 17:12:12 64° 73° (ENE) 541 3.5 -11.3°
Drops below altitude 10° 17:15:46 10° 352° (N) 1,674 6.2 -11.8°
Sets 17:17:51 0° 349° (N) 2,560 7.2 -12.1°
